• în România
  • Lista ţărilor
  • Pe 7 zile
  • Temperatura apei
  • Hartă satelitară
  • Meteo pe hartă
  • Widget-uri
  • user-avatar
    Intrare

    Meteo pe oră la Algiers

    Astăzi, 21 Ianuarie, Duminică

    Timp Temperatura Precipitaţii Vânt Presiune Umiditate
    00:00 +9°C° 0 mm 6 m/s 755 mmHg 74%
    01:00 +9°C° 0 mm 6 m/s 755 mmHg 71%
    02:00 +9°C° 0 mm 7 m/s 754 mmHg 67%
    03:00 +9°C° 0 mm 7 m/s 754 mmHg 64%
    04:00 +9°C° 0 mm 7 m/s 754 mmHg 63%
    05:00 +9°C° 0 mm 7 m/s 754 mmHg 62%
    06:00 +9°C° 0 mm 7 m/s 754 mmHg 61%
    07:00 +10°C° 0 mm 7 m/s 754 mmHg 59%
    08:00 +12°C° 0 mm 7 m/s 755 mmHg 58%
    09:00 +14°C° 0 mm 6 m/s 755 mmHg 56%
    10:00 +15°C° 0 mm 7 m/s 755 mmHg 53%
    11:00 +17°C° 0 mm 7 m/s 755 mmHg 51%
    12:00 +18°C° 0 mm 7 m/s 755 mmHg 48%
    13:00 +18°C° 0 mm 7 m/s 755 mmHg 49%
    14:00 +18°C° 0 mm 7 m/s 755 mmHg 50%
    15:00 +18°C° 0 mm 7 m/s 755 mmHg 52%
    16:00 +17°C° 0 mm 6 m/s 755 mmHg 59%
    17:00 +15°C° 0 mm 6 m/s 755 mmHg 67%
    18:00 +13°C° 0 mm 5 m/s 755 mmHg 74%
    19:00 +13°C° 0 mm 5 m/s 756 mmHg 73%
    20:00 +13°C° 0 mm 5 m/s 756 mmHg 72%
    21:00 +13°C° 0 mm 4 m/s 756 mmHg 71%
    22:00 +13°C° 0 mm 4 m/s 756 mmHg 70%
    23:00 +12°C° 0 mm 4 m/s 757 mmHg 68%

    Mâine, 22 Ianuarie, Luni

    Timp Temperatura Precipitaţii Vânt Presiune Umiditate
    00:00 +12°C° 0 mm 4 m/s 757 mmHg 66%
    01:00 +12°C° 0 mm 4 m/s 757 mmHg 65%
    02:00 +12°C° 0 mm 3 m/s 757 mmHg 65%
    03:00 +12°C° 0 mm 3 m/s 757 mmHg 64%
    04:00 +12°C° 0 mm 3 m/s 757 mmHg 64%
    05:00 +12°C° 0 mm 3 m/s 756 mmHg 64%
    06:00 +12°C° 0 mm 3 m/s 756 mmHg 64%
    07:00 +13°C° 0 mm 3 m/s 757 mmHg 62%
    08:00 +16°C° 0 mm 2 m/s 757 mmHg 60%
    09:00 +17°C° 0 mm 2 m/s 757 mmHg 57%
    10:00 +18°C° 0 mm 2 m/s 757 mmHg 53%
    11:00 +20°C° 0 mm 2 m/s 756 mmHg 50%
    12:00 +21°C° 0 mm 2 m/s 756 mmHg 46%
    13:00 +21°C° 0 mm 3 m/s 756 mmHg 47%
    14:00 +21°C° 0 mm 3 m/s 756 mmHg 47%
    15:00 +21°C° 0 mm 3 m/s 755 mmHg 48%
    16:00 +19°C° 0 mm 3 m/s 755 mmHg 55%
    17:00 +17°C° 0 mm 3 m/s 756 mmHg 62%
    18:00 +14°C° 0 mm 3 m/s 756 mmHg 69%
    19:00 +14°C° 0 mm 3 m/s 756 mmHg 70%
    20:00 +15°C° 0 mm 2 m/s 756 mmHg 71%
    21:00 +14°C° 0 mm 2 m/s 756 mmHg 71%
    22:00 +14°C° 0 mm 2 m/s 756 mmHg 71%
    23:00 +14°C° 0 mm 2 m/s 756 mmHg 70%

    Poimâine, 23 Ianuarie, Marţi

    Timp Temperatura Precipitaţii Vânt Presiune Umiditate
    00:00 +14°C° 0 mm 2 m/s 756 mmHg 69%
    01:00 +14°C° 0 mm 2 m/s 756 mmHg 68%
    02:00 +14°C° 0 mm 2 m/s 756 mmHg 67%
    03:00 +13°C° 0 mm 2 m/s 756 mmHg 66%
    04:00 +13°C° 0 mm 1 m/s 756 mmHg 66%
    05:00 +13°C° 0 mm 1 m/s 756 mmHg 66%
    06:00 +13°C° 0 mm 1 m/s 756 mmHg 65%
    07:00 +14°C° 0 mm 1 m/s 756 mmHg 62%
    08:00 +16°C° 0 mm 1 m/s 757 mmHg 58%
    09:00 +18°C° 0 mm 1 m/s 757 mmHg 55%
    10:00 +19°C° 0 mm 1 m/s 757 mmHg 50%
    11:00 +20°C° 0 mm 1 m/s 757 mmHg 46%
    12:00 +21°C° 0 mm 1 m/s 757 mmHg 41%
    13:00 +21°C° 0 mm 1 m/s 757 mmHg 43%
    14:00 +20°C° 0 mm 2 m/s 756 mmHg 44%
    15:00 +20°C° 0 mm 2 m/s 756 mmHg 45%
    16:00 +18°C° 0 mm 2 m/s 756 mmHg 53%
    17:00 +16°C° 0 mm 2 m/s 757 mmHg 60%
    18:00 +14°C° 0 mm 2 m/s 757 mmHg 67%
    19:00 +14°C° 0 mm 2 m/s 757 mmHg 68%
    20:00 +14°C° 0 mm 2 m/s 757 mmHg 68%
    21:00 +14°C° 0 mm 2 m/s 758 mmHg 68%
    22:00 +13°C° 0 mm 2 m/s 758 mmHg 67%
    23:00 +13°C° 0 mm 2 m/s 757 mmHg 65%

    24 Ianuarie, Miercuri

    Timp Temperatura Precipitaţii Vânt Presiune Umiditate
    00:00 +13°C° 0 mm 2 m/s 757 mmHg 64%
    01:00 +13°C° 0 mm 2 m/s 757 mmHg 63%
    02:00 +13°C° 0 mm 2 m/s 757 mmHg 61%
    03:00 +13°C° 0 mm 2 m/s 757 mmHg 60%
    04:00 +13°C° 0 mm 2 m/s 757 mmHg 60%
    05:00 +13°C° 0 mm 2 m/s 757 mmHg 59%
    06:00 +13°C° 0 mm 2 m/s 757 mmHg 58%
    07:00 +14°C° 0 mm 2 m/s 757 mmHg 55%
    08:00 +16°C° 0 mm 2 m/s 757 mmHg 53%
    09:00 +17°C° 0 mm 2 m/s 757 mmHg 50%
    10:00 +19°C° 0 mm 2 m/s 757 mmHg 46%
    11:00 +21°C° 0 mm 1 m/s 757 mmHg 41%
    12:00 +23°C° 0 mm 1 m/s 757 mmHg 37%
    13:00 +23°C° 0 mm 1 m/s 756 mmHg 37%
    14:00 +23°C° 0 mm 1 m/s 756 mmHg 38%
    15:00 +23°C° 0 mm 1 m/s 755 mmHg 39%
    16:00 +21°C° 0 mm 1 m/s 755 mmHg 45%
    17:00 +19°C° 0 mm 1 m/s 755 mmHg 50%
    18:00 +16°C° 0 mm 1 m/s 755 mmHg 55%
    19:00 +16°C° 0 mm 1 m/s 756 mmHg 54%
    20:00 +15°C° 0 mm 2 m/s 756 mmHg 53%
    21:00 +15°C° 0 mm 2 m/s 756 mmHg 52%
    22:00 +15°C° 0 mm 2 m/s 756 mmHg 52%
    23:00 +15°C° 0 mm 2 m/s 755 mmHg 52%

    25 Ianuarie, Joi

    Timp Temperatura Precipitaţii Vânt Presiune Umiditate
    00:00 +14°C° 0 mm 2 m/s 755 mmHg 52%
    01:00 +14°C° 0 mm 2 m/s 755 mmHg 53%
    02:00 +13°C° 0 mm 3 m/s 755 mmHg 53%
    03:00 +13°C° 0 mm 3 m/s 754 mmHg 54%
    04:00 +13°C° 0 mm 3 m/s 754 mmHg 55%
    05:00 +12°C° 0 mm 3 m/s 754 mmHg 56%
    06:00 +12°C° 0 mm 3 m/s 754 mmHg 57%
    07:00 +13°C° 0 mm 3 m/s 754 mmHg 56%
    08:00 +14°C° 0 mm 3 m/s 754 mmHg 55%
    09:00 +17°C° 0 mm 4 m/s 754 mmHg 54%
    10:00 +18°C° 0 mm 3 m/s 754 mmHg 49%
    11:00 +20°C° 0 mm 3 m/s 754 mmHg 44%
    12:00 +22°C° 0 mm 3 m/s 753 mmHg 39%
    13:00 +22°C° 0 mm 3 m/s 753 mmHg 39%
    14:00 +22°C° 0 mm 3 m/s 752 mmHg 38%
    15:00 +22°C° 0 mm 3 m/s 752 mmHg 38%
    16:00 +20°C° 0 mm 2 m/s 751 mmHg 45%
    17:00 +18°C° 0 mm 2 m/s 751 mmHg 51%
    18:00 +16°C° 0 mm 2 m/s 751 mmHg 58%
    19:00 +16°C° 0 mm 2 m/s 751 mmHg 59%
    20:00 +15°C° 0 mm 2 m/s 752 mmHg 60%
    21:00 +15°C° 0 mm 2 m/s 752 mmHg 60%
    22:00 +14°C° 0 mm 3 m/s 751 mmHg 60%
    23:00 +13°C° 0 mm 3 m/s 751 mmHg 61%

    26 Ianuarie, Vineri

    Timp Temperatura Precipitaţii Vânt Presiune Umiditate
    00:00 +13°C° 0 mm 3 m/s 751 mmHg 61%
    01:00 +13°C° 0 mm 4 m/s 750 mmHg 61%
    02:00 +12°C° 0 mm 4 m/s 750 mmHg 61%
    03:00 +12°C° 0 mm 4 m/s 750 mmHg 61%
    04:00 +12°C° 0 mm 5 m/s 750 mmHg 61%
    05:00 +12°C° 0 mm 5 m/s 750 mmHg 61%
    06:00 +10°C° 0 mm 5 m/s 750 mmHg 61%
    07:00 +12°C° 0 mm 5 m/s 750 mmHg 61%
    08:00 +13°C° 0 mm 5 m/s 751 mmHg 61%
    09:00 +14°C° 0 mm 4 m/s 751 mmHg 60%
    10:00 +14°C° 0,7 mm 5 m/s 751 mmHg 68%
    11:00 +13°C° 0,7 mm 5 m/s 751 mmHg 75%
    12:00 +12°C° 0,7 mm 5 m/s 751 mmHg 83%
    13:00 +12°C° 0,5 mm 5 m/s 751 mmHg 81%
    14:00 +12°C° 0,5 mm 5 m/s 751 mmHg 79%
    15:00 +12°C° 0,5 mm 4 m/s 751 mmHg 77%
    16:00 +12°C° 0,3 mm 4 m/s 752 mmHg 78%
    17:00 +11°C° 0,3 mm 4 m/s 752 mmHg 79%
    18:00 +11°C° 0,3 mm 3 m/s 753 mmHg 80%
    19:00 +10°C° 0,5 mm 3 m/s 753 mmHg 81%
    20:00 +10°C° 0,5 mm 3 m/s 753 mmHg 81%
    21:00 +10°C° 0,5 mm 3 m/s 754 mmHg 82%
    22:00 +9°C° 0,2 mm 3 m/s 754 mmHg 82%
    23:00 +9°C° 0,2 mm 3 m/s 753 mmHg 82%
    Arată mai mult